Mora, MN

5:38 PM CDT on April 24, 2017 (GMT -0500)
Mora Municipal

Weather History for KJMR - January, 2014

Change the Weather History Date:

Friday, January 3, 2014

  Actual Average Record
Temperature  
Mean Temperature 2 °F -  
Max Temperature 26 °F 21 °F 45 °F (1984)
Min Temperature -23 °F -2 °F -31 °F (1979)
Degree Days  
Heating Degree Days 64    
Moisture  
Dew Point -1 °F    
Average Humidity 75    
Maximum Humidity 93    
Minimum Humidity 55    
Precipitation  
Precipitation 0.02 in - - ()
Sea Level Pressure  
Sea Level Pressure 29.78 in    
Wind  
Wind Speed 6 mph (South)    
Max Wind Speed 18 mph    
Max Gust Speed 23 mph    
Visibility 7 miles    
Events Snow    
Averages and records for this station are not official NWS values.
T = Trace of Precipitation, MM = Missing Value Source: NWS Daily Summary

Daily Weather History Graph

Daily Weather History Graph

Search for Another Location

Airport or City:

Trip Planner

Search our weather history database for the weather conditions in past years. The results will help you decide how hot, cold, wet, or windy it might be!

Date:

Astronomy

Jan. 03, 2014 Rise Set
Actual Time 7:54 AM CST 4:40 PM CST
Civil Twilight 7:20 AM CST 5:15 PM CST
Nautical Twilight 6:42 AM CST 5:52 PM CST
Astronomical Twilight 6:06 AM CST 6:29 PM CST
Moon 9:11 AM CST (1/3) 8:01 PM CST (1/3)
Length of Visible Light 9h 54m
Length of Day
8h 46m
Waxing Crescent, 8% of the Moon is Illuminated
Jan 3
Waxing Crescent
Jan 7
First Quarter
Jan 15
Full
Jan 23
Last Quarter
Jan 30
New

Hourly Weather History & Observations

Time (CST) Temp. Windchill Dew Point Humidity Pressure Visibility Wind Dir Wind Speed Gust Speed Precip Events Conditions
12:13 AM -23.8 °F - -31.0 °F 69% 30.32 in 10.0 mi Calm Calm - N/A   Clear
12:33 AM -23.8 °F - -31.0 °F 69% 30.31 in 10.0 mi Calm Calm - N/A   Clear
12:53 AM -22.0 °F - -29.2 °F 69% 30.30 in 10.0 mi Calm Calm - N/A   Clear
1:13 AM -23.8 °F - -31.0 °F 69% 30.28 in 10.0 mi Calm Calm - N/A   Clear
1:33 AM -23.8 °F - -31.0 °F 69% 30.27 in 10.0 mi Calm Calm - N/A   Clear
1:53 AM -23.8 °F - -31.0 °F 69% 30.27 in 10.0 mi Calm Calm - N/A   Clear
2:13 AM -23.8 °F - -29.2 °F 76% 30.27 in 10.0 mi Calm Calm - N/A   Clear
2:33 AM -22.0 °F - -29.2 °F 69% 30.26 in 10.0 mi Calm Calm - N/A   Clear
2:53 AM -22.0 °F - -29.2 °F 69% 30.24 in 10.0 mi Calm Calm - N/A   Mostly Cloudy
3:13 AM -18.4 °F - -25.6 °F 70% 30.23 in 10.0 mi Calm Calm - N/A   Mostly Cloudy
3:33 AM -13.0 °F -25.1 °F -18.4 °F 77% 30.21 in 10.0 mi SSE 4.6 mph - N/A   Mostly Cloudy
3:53 AM -9.4 °F -22.7 °F -16.6 °F 71% 30.19 in 10.0 mi South 5.8 mph - N/A   Scattered Clouds
4:13 AM -9.4 °F -24.3 °F -16.6 °F 71% 30.16 in 10.0 mi SSE 6.9 mph - N/A   Mostly Cloudy
4:33 AM -7.6 °F -18.8 °F -14.8 °F 71% 30.16 in 10.0 mi SSE 4.6 mph - N/A   Overcast
4:53 AM -7.6 °F -20.6 °F -14.8 °F 71% 30.14 in 10.0 mi SSE 5.8 mph - N/A   Overcast
5:13 AM -5.8 °F -16.7 °F -14.8 °F 65% 30.12 in 10.0 mi SSE 4.6 mph - N/A   Mostly Cloudy
5:33 AM -5.8 °F -16.7 °F -13.0 °F 71% 30.11 in 10.0 mi SSE 4.6 mph - N/A   Overcast
5:53 AM -5.8 °F -21.2 °F -13.0 °F 71% 30.09 in 10.0 mi South 8.1 mph - N/A   Mostly Cloudy
6:13 AM -4.0 °F -20.2 °F -13.0 °F 65% 30.06 in 10.0 mi SSE 9.2 mph - N/A   Scattered Clouds
6:33 AM -4.0 °F -23.0 °F -11.2 °F 71% 30.05 in 10.0 mi South 12.7 mph - N/A   Mostly Cloudy
6:53 AM -4.0 °F -19.0 °F -13.0 °F 65% 30.03 in 10.0 mi SSE 8.1 mph - N/A   Overcast
7:13 AM -2.2 °F -16.8 °F -13.0 °F 60% 30.01 in 10.0 mi SSE 8.1 mph - N/A   Overcast
7:33 AM -0.4 °F -16.7 °F -13.0 °F 55% 29.98 in 10.0 mi SSE 10.4 mph - N/A   Overcast
7:53 AM -0.4 °F -16.7 °F -9.4 °F 66% 29.96 in 10.0 mi SSE 10.4 mph 16.1 mph N/A   Overcast
8:13 AM -0.4 °F -19.2 °F -9.4 °F 66% 29.95 in 10.0 mi South 13.8 mph 18.4 mph N/A   Overcast
8:33 AM 1.4 °F -11.3 °F -7.6 °F 66% 29.91 in 10.0 mi SSE 6.9 mph 17.3 mph N/A   Overcast
8:53 AM 3.2 °F -12.2 °F -7.6 °F 61% 29.91 in 10.0 mi SSE 10.4 mph 17.3 mph N/A   Overcast
9:13 AM 3.2 °F -11.3 °F -5.8 °F 66% 29.88 in 10.0 mi South 9.2 mph 17.3 mph N/A   Overcast
9:33 AM 5.0 °F -10.8 °F -4.0 °F 66% 29.87 in 10.0 mi South 11.5 mph 16.1 mph N/A   Overcast
9:53 AM 5.0 °F -11.6 °F -4.0 °F 66% 29.85 in 10.0 mi South 12.7 mph - N/A   Overcast
10:13 AM 5.0 °F -12.3 °F -4.0 °F 66% 29.83 in 10.0 mi South 13.8 mph 18.4 mph N/A   Overcast
10:33 AM 6.8 °F -7.8 °F -2.2 °F 67% 29.82 in 10.0 mi South 10.4 mph 18.4 mph N/A   Overcast
10:53 AM 6.8 °F -8.6 °F -2.2 °F 67% 29.79 in 10.0 mi South 11.5 mph - N/A   Overcast
11:13 AM 8.6 °F -7.0 °F -0.4 °F 67% 29.76 in 10.0 mi South 12.7 mph 17.3 mph N/A   Overcast
11:33 AM 10.4 °F -7.7 °F 1.4 °F 67% 29.74 in 10.0 mi South 18.4 mph 23.0 mph N/A   Overcast
11:53 AM 10.4 °F -6.6 °F 1.4 °F 67% 29.72 in 10.0 mi South 16.1 mph - N/A   Overcast
12:13 PM 12.2 °F -3.1 °F 3.2 °F 67% 29.70 in 10.0 mi South 13.8 mph - N/A Snow Light Snow
12:33 PM 12.2 °F -3.1 °F 3.2 °F 67% 29.68 in 7.0 mi South 13.8 mph - N/A Snow Light Snow
12:53 PM 12.2 °F -1.8 °F 5.0 °F 73% 29.66 in 5.0 mi South 11.5 mph - N/A Snow Light Snow
1:13 PM 12.2 °F -2.5 °F 5.0 °F 73% 29.65 in 5.0 mi South 12.7 mph 17.3 mph N/A Snow Light Snow
1:33 PM 12.2 °F 0.7 °F 5.0 °F 73% 29.63 in 4.0 mi SSE 8.1 mph - N/A Snow Light Snow
1:53 PM 12.2 °F -0.2 °F 6.8 °F 79% 29.61 in 3.0 mi South 9.2 mph - N/A Snow Light Snow
2:13 PM 14.0 °F 2.9 °F 8.6 °F 79% 29.60 in 2.5 mi SSE 8.1 mph - N/A Snow Light Snow
2:33 PM 14.0 °F 1.2 °F 8.6 °F 79% 29.58 in 5.0 mi South 10.4 mph - N/A Snow Light Snow
2:53 PM 14.0 °F 0.5 °F 8.6 °F 79% 29.58 in 2.0 mi South 11.5 mph - N/A Snow Light Snow
3:13 PM 14.0 °F 2.9 °F 10.4 °F 86% 29.57 in 1.8 mi South 8.1 mph - N/A Snow Light Snow
3:33 PM 14.0 °F 2.0 °F 10.4 °F 86% 29.57 in 2.0 mi South 9.2 mph - N/A Snow Light Snow
3:53 PM 14.0 °F 1.2 °F 10.4 °F 86% 29.56 in 3.0 mi South 10.4 mph - N/A Snow Light Snow
4:13 PM 14.0 °F 2.0 °F 10.4 °F 86% 29.55 in 2.0 mi South 9.2 mph - N/A Snow Light Snow
4:33 PM 14.0 °F 2.0 °F 10.4 °F 86% 29.54 in 2.0 mi South 9.2 mph - N/A Snow Light Snow
4:53 PM 15.8 °F 2.7 °F 12.2 °F 86% 29.51 in 4.0 mi South 11.5 mph 16.1 mph N/A Snow Light Snow
5:13 PM 17.6 °F 6.4 °F 12.2 °F 79% 29.51 in 5.0 mi South 9.2 mph - N/A   Overcast
5:33 PM 17.6 °F 6.4 °F 12.2 °F 79% 29.49 in 3.0 mi SSE 9.2 mph - N/A Snow Light Snow
5:53 PM 15.8 °F 4.2 °F 12.2 °F 86% 29.51 in 3.0 mi South 9.2 mph - N/A   Overcast
6:13 PM 17.6 °F 6.4 °F 14.0 °F 86% 29.49 in 3.0 mi SSE 9.2 mph - N/A   Overcast
6:33 PM 17.6 °F 6.4 °F 14.0 °F 86% 29.50 in 4.0 mi South 9.2 mph - N/A   Overcast
6:53 PM 17.6 °F 6.4 °F 14.0 °F 86% 29.48 in 5.0 mi South 9.2 mph 16.1 mph N/A   Overcast
7:13 PM 17.6 °F 5.7 °F 14.0 °F 86% 29.47 in 7.0 mi South 10.4 mph 16.1 mph N/A   Overcast
7:33 PM 17.6 °F 5.7 °F 14.0 °F 86% 29.45 in 7.0 mi South 10.4 mph - N/A   Overcast
7:53 PM 17.6 °F 5.0 °F 14.0 °F 86% 29.45 in 5.0 mi South 11.5 mph - N/A   Overcast
8:13 PM 17.6 °F 5.7 °F 14.0 °F 86% 29.45 in 5.0 mi South 10.4 mph - N/A   Overcast
8:33 PM 17.6 °F 6.4 °F 14.0 °F 86% 29.43 in 4.0 mi South 9.2 mph - N/A   Overcast
8:53 PM 19.4 °F 8.6 °F 14.0 °F 80% 29.43 in 3.0 mi South 9.2 mph - N/A Snow Light Snow
9:13 PM 19.4 °F 10.4 °F 15.8 °F 86% 29.43 in 4.0 mi South 6.9 mph - N/A   Overcast
9:33 PM 19.4 °F 9.5 °F 17.6 °F 93% 29.42 in 4.0 mi South 8.1 mph - N/A Snow Light Snow
9:53 PM 19.4 °F 9.5 °F 17.6 °F 93% 29.40 in 5.0 mi South 8.1 mph - N/A Snow Light Snow
10:13 PM 21.2 °F 13.6 °F 17.6 °F 86% 29.40 in 4.0 mi South 5.8 mph - 0.01 in Snow Light Snow
10:33 PM 24.8 °F 15.3 °F 21.2 °F 86% 29.39 in 4.0 mi South 9.2 mph - 0.02 in Snow Light Snow
10:53 PM 24.8 °F 15.3 °F 21.2 °F 86% 29.39 in 7.0 mi SSW 9.2 mph - 0.02 in   Overcast
11:13 PM 26.6 °F 17.5 °F 23.0 °F 86% 29.39 in 7.0 mi SSW 9.2 mph - N/A   Overcast
11:33 PM 26.6 °F 18.2 °F 23.0 °F 86% 29.39 in 7.0 mi SSW 8.1 mph - N/A Snow Light Snow
11:53 PM 26.6 °F 19.1 °F 23.0 °F 86% 29.38 in 7.0 mi SSW 6.9 mph - N/A Snow Light Snow